Simultaneous Nadir Overpasses (SNOs) Predictions

Prediction of SNOs between AQUA and METOP-B Satellite Orbit:

Table of predicted SNOs for the next 14.0 days since TLE Epoch: 1/18/2020
Index Date (AQUA) Time (AQUA) Lat,Lon (AQUA) SZA (AQUA ) Date (METOP-B) Time (METOP-B) Lat,Lon (METOP-B) SZA (METOP-B ) Distance(km) Time Diff (sec)
1 01/19/2020 17:03:27 73.78, -81.59 94.19 01/19/2020 17:02:49 73.75, -81.58 94.17 3.13 38
2 01/19/2020 17:52:54 -73.86, 85.88 85.73 01/19/2020 17:53:29 -73.85, 85.98 85.75 3.47 35
3 01/22/2020 12:37:43 73.78, -15.13 93.58 01/22/2020 12:37:12 73.79, -15.08 93.60 2.28 31
4 01/22/2020 13:27:10 -73.85, 152.35 86.36 01/22/2020 13:27:53 -73.84, 152.37 86.37 0.85 43
5 01/25/2020 07:22:17 -73.01,-114.73 87.90 01/25/2020 07:21:12 -73.01,-117.78 87.76 99.11 65
6 01/25/2020 08:11:59 73.78, 51.31 92.92 01/25/2020 08:11:36 73.78, 51.29 92.93 0.50 23
7 01/25/2020 09:01:26 -73.84,-141.19 87.02 01/25/2020 09:02:17 -73.84,-141.24 87.03 1.61 51
8 01/28/2020 02:56:38 -73.32, -48.93 88.27 01/28/2020 02:55:29 -73.30, -50.74 88.20 58.05 69
9 01/28/2020 03:46:14 73.78, 117.73 92.22 01/28/2020 03:45:59 73.76, 117.66 92.21 2.99 15
10 01/28/2020 04:35:41 -73.84, -74.75 87.73 01/28/2020 04:36:40 -73.83, -74.86 87.75 3.71 59
11 01/30/2020 22:31:00 -73.64, 16.85 88.68 01/30/2020 22:29:47 -73.59, 16.32 88.69 17.54 73
12 01/30/2020 23:20:30 73.79,-175.85 91.48 01/30/2020 23:20:22 73.80,-175.85 91.49 0.68 8
13 01/31/2020 00:09:57 -73.84, -8.32 88.48 01/31/2020 00:11:03 -73.86, -8.37 88.46 3.12 66




NCC Satellite Simultaneous Nadir Overpasses (SNOs) Prediction Service
